Preview of NWS' New Version of Forecast
This preview is not operational and should not be used for support decisions.

Regional Weather Roundup (RWR)

Issued by National Weather Service (NWS)

                            
000
ASUS46 KPQR 200810
RWROR 

OREGON REGIONAL WEATHER ROUNDUP
NATIONAL WEATHER SERVICE PORTLAND OR
100 AM PDT SAT APR 20 2019

NOTE: "FAIR" INDICATES FEW OR NO CLOUDS BELOW 12,000 FEET WITH
NO SIGNIFICANT WEATHER AND/OR OBSTRUCTIONS TO VISIBILITY.

ORZ001>013-200900-
NORTHWEST OREGON

  
CITY           SKY/WX    TMP DP  RH WIND       PRES   REMARKS
ASTORIA        CLOUDY    50  45  83 NW13      30.01R                  
TILLAMOOK      CLOUDY    52  48  87 W7        30.02S                  
NEWPORT        DRIZZLE   50  48  93 N12G17    30.03S                  
PORTLAND       CLOUDY    53  47  79 NW9       29.97S                  
VANCOUVER WA   CLOUDY    52  47  83 NW6       29.97R                  
SCAPPOOSE      CLOUDY    53  47  79 N5        29.97R                  
HILLSBORO      CLOUDY    51  46  83 NW8       29.97R                  
AURORA         CLOUDY    52  50  93 CALM      29.98S                  
MCMINNVILLE    CLOUDY    51  50  96 W3        29.97S                  
SALEM          LGT RAIN  51  49  92 NW5       29.96S                  
CORVALLIS      LGT RAIN  51  49  92 NW8       29.98S                  
EUGENE         LGT RAIN  51  49  92 N12       29.97S FOG              
$$

ORZ021-028-200900-
SOUTHWEST OREGON

  
CITY           SKY/WX    TMP DP  RH WIND       PRES   REMARKS
NORTH BEND     CLOUDY    52  48  86 N16       30.02S                  
BROOKINGS      CLOUDY    52  49  89 CALM      29.97S                  
ROSEBURG       CLOUDY    55  50  83 N5        29.96R                  
SEXTON SUMMIT  LGT RAIN  43  43 100 N7        29.92S VSB 1/4          
GRANTS PASS    CLOUDY    54  50  87 NW6       29.94S                  
MEDFORD        CLOUDY    59  47  64 W6        29.89F                  
$$

ORZ014>016-041-200900-
COLUMBIA GORGE

  
CITY           SKY/WX    TMP DP  RH WIND       PRES   REMARKS
TROUTDALE      CLOUDY    53  49  86 W5        29.97R                  
HOOD RIVER     DRIZZLE   52  48  87 MISG      29.91S                  
THE DALLES     LGT RAIN  55  48  77 NW6       29.88S                  
$$

ORZ029>031-041-044-049-050-061>064-502-503-505>511-200900-
EASTERN OREGON

  
CITY           SKY/WX    TMP DP  RH WIND       PRES   REMARKS
MADRAS         CLOUDY    50  43  76 N7        29.93S                  
REDMOND        LGT RAIN  51  42  71 NW5       29.91R                  
BEND           CLOUDY    48  43  81 NW7       29.91S                  
PRINEVILLE     CLOUDY    48  43  81 N9G15     29.90S                  
KLAMATH FALLS  CLOUDY    51  47  86 NW8       29.90S                  
LAKEVIEW       CLOUDY    53  45  74 W9        29.90R                  
HERMISTON      LGT RAIN  57  52  83 S3        29.87R                  
PENDLETON      LGT RAIN  53  51  93 S6        29.88R                  
JOHN DAY       DRIZZLE   50  48  93 NW9       29.90R                  
MEACHAM        FOG       45  43  93 CALM      29.89S VSB 3/4          
LA GRANDE      CLOUDY    50  46  86 NW8       29.87R                  
BAKER CITY     CLOUDY    51  44  77 NW14      29.84R                  
BURNS          CLOUDY    52  47  83 NW9       29.84F                  
ROME             N/A     59  32  36 SW14      29.80R                  
ONTARIO        CLOUDY    64  49  57 NW15      29.73R                  
$$